Date,TemperatureHighF,TemperatureAvgF,TemperatureLowF,DewpointHighF,DewpointAvgF,DewpointLowF,HumidityHigh,HumidityAvg,HumidityLow,PressureMaxIn,PressureMinIn,WindSpeedMaxMPH,WindSpeedAvgMPH,GustSpeedMaxMPH,PrecipitationSumIn
2013-1-1,41.4,35.9,33.3,35.8,30.9,25.7,88,82,72,30.03,29.88,10,1,11,0.06
2013-1-2,37.9,32.6,28.0,29.7,23.0,16.0,85,68,44,30.11,29.94,9,2,11,0.01
2013-1-3,47.3,30.5,23.4,23.9,18.5,12.4,76,63,27,30.18,30.08,7,1,10,0.00
2013-1-4,39.0,30.5,25.3,20.0,17.3,14.0,76,58,44,30.26,30.17,19,4,19,0.00
2013-1-5,50.2,33.3,22.3,25.5,20.6,15.9,78,61,27,30.34,30.13,6,2,7,0.00
2013-1-6,43.2,38.1,33.6,29.7,26.4,22.7,72,63,50,30.15,30.00,17,2,17,0.00
2013-1-7,51.3,35.5,25.9,25.2,19.8,17.3,72,54,28,30.38,30.15,12,3,15,0.00
2013-1-8,58.8,33.3,20.8,29.3,22.2,15.6,82,66,26,30.33,30.22,5,1,7,0.00
2013-1-9,45.1,36.9,27.7,39.6,30.7,21.4,96,78,58,30.40,30.26,6,1,6,0.00
2013-1-10,53.2,40.9,34.5,41.1,36.0,31.9,98,84,57,30.49,30.28,4,1,6,0.00
2013-1-11,55.2,45.3,36.5,47.4,40.7,31.8,93,84,72,30.27,30.01,12,2,12,0.06
2013-1-12,74.5,51.2,41.0,57.3,46.3,39.4,95,85,53,30.12,29.98,6,1,6,0.02
2013-1-13,64.8,52.6,44.8,53.6,48.9,44.0,97,88,67,30.04,29.91,5,1,7,0.04
2013-1-14,55.2,47.1,37.9,53.2,42.1,34.3,95,83,74,30.23,29.97,24,5,24,0.39
2013-1-15,43.3,40.9,38.3,41.5,38.3,35.6,93,90,84,30.16,29.94,6,2,12,0.63
2013-1-16,43.3,41.7,41.4,41.5,39.9,39.5,94,93,93,29.96,29.87,3,1,3,0.15
2013-1-17,48.9,39.9,25.3,25.0,22.0,17.2,74,50,28,29.87,29.68,3,1,3,0.00
2013-1-18,37.2,30.5,26.4,25.5,22.1,20.3,78,71,61,29.92,29.62,3,1,3,3.34
2013-1-19,56.5,34.6,24.3,31.6,23.0,18.1,82,65,28,29.86,29.54,8,2,8,0.00
2013-1-20,57.0,37.7,27.0,31.4,21.7,9.9,87,58,22,29.58,29.48,15,4,21,0.01
2013-1-21,48.0,33.0,23.0,23.3,9.6,-4.1,75,43,20,29.57,29.35,14,4,27,0.00
2013-1-22,29.8,19.8,13.6,-2.1,-9.7,-15.3,39,26,20,29.68,29.49,18,6,21,0.11
2013-1-23,29.3,21.5,13.8,8.7,-3.4,-13.7,49,34,19,29.73,29.44,14,4,21,0.00
2013-1-24,31.6,22.1,13.6,14.9,2.3,-6.9,57,42,25,29.92,29.42,16,6,28,0.01
2013-1-25,26.6,20.3,14.4,20.1,8.4,-2.3,76,60,41,29.88,29.49,5,2,8,0.00
2013-1-26,33.8,30.1,27.1,25.2,18.6,13.3,82,62,55,29.87,29.54,14,4,18,0.00
2013-1-27,46.4,30.9,17.1,23.7,16.9,8.9,74,57,30,29.95,29.82,8,1,11,0.12
2013-1-28,60.3,42.1,32.5,45.7,35.6,23.7,89,78,51,29.82,29.60,10,1,10,0.17
2013-1-29,77.0,53.6,42.4,52.5,45.2,40.0,94,76,42,29.63,29.44,8,1,14,0.01
2013-1-30,71.4,53.6,43.3,56.5,49.8,42.2,97,88,56,29.42,28.90,18,3,21,1.03
2013-1-31,47.7,34.2,29.5,43.4,20.7,14.3,85,58,46,29.39,28.90,24,7,31,0.20